Tracking 17265 objects as of 5-September-2015
HD Live streaming from Space Station

Track Soyuz TMA-18M
and Space Station

SINAH 1

Track SINAH 1 now!
10-day predictions
SINAH 1 is classified as:


NORAD ID: 28893
Int'l Code: 2005-043D
Perigee: 684.8 km
Apogee: 708.1 km
Inclination: 97.8 °
Period: 98.5 minutes
Semi major axis: 7067 km
RCS: 0.8773 m2 (medium)
Launch date: October 27, 2005
Source: Iran (IRAN)

Sinah 1 is an Iranian microsatellite (170 kg). Iranian press reports that it is intended for "telecommunications and research".
Your satellite tracking list
Your tracking list is empty





NASA's NSSDC Master Catalog

Two Line Element Set (TLE):
1 28893U 05043D   15247.53501346  .00000168  00000-0  42941-4 0  9997
2 28893  97.8230  68.3621 0016443  52.3168  14.6567 14.61197799525285

Source of the keplerian elements: AFSPC

N2YO: 247